パンスターズ彗星

456P/PanSTARRS (2014)

English version
Home page
Updated on February 8, 2023

---------------------------------------------------------------------

・ プロフィール

符号 456P/2012 Q3

・ 軌道要素

                    Epoch = 2014 Jan. 23.0 TT
     T = 2014 Jan. 19.07135 TT        Peri. = 235.29274
     e = 0.1210695                    Node  = 243.29376 2000.0
     q = 2.7846295 AU                 Incl. =  16.96443
       a =  3.1682022 AU   n = 0.17477719   P =   5.64 years

・ 光度変化

        H = 17.7  G = 0.15

---------------------------------------------------------------------

軌道要素は、CBET 5210に掲載されたものです。
光度グラフはComet for Windowsで作成したものです。

---------------------------------------------------------------------

Copyright(C) Seiichi Yoshida (comet@aerith.net). All rights reserved.